Location: Heiligenstein
(50.9138°N, 10.3890°E)
Time: 12:39:47
(UTC+00:00)

Daily predictions for brighter satellites

Satellite Brightness Start Highest point End
(mag) Time Altitude Azimuth Time Altitude Azimuth Time Altitude Azimuth
SL-16 R/B 2.2 15:43:16 10° NNW 15:48:58 64° ENE 15:54:35 10° SE
ARGOS 3.4 15:44:48 10° SSE 15:50:14 83° WSW 15:55:42 10° NNW
USA 305 2.9 15:48:57 10° WNW 15:52:39 52° N 15:56:26 10° E
Lacrosse 4 Rocket 2.8 15:49:28 10° NNW 15:52:55 22° NE 15:56:18 10° E
Meteor 1-31 Rocket 3.5 15:52:30 10° SE 15:55:41 28° ENE 15:58:55 10° N
CZ-2C R/B 3.8 15:53:24 10° N 15:58:24 42° WNW 16:03:17 10° SW
Cosmos 1943 3.9 15:57:40 10° NNW 16:02:44 33° NE 16:07:47 10° ESE
Cosmos 1544 3.1 16:00:47 10° N 16:03:55 42° ENE 16:07:02 10° SSE
Cosmos 1634 Rocket 4.0 15:57:58 10° N 16:04:19 82° E 16:10:39 10° SSE
Cosmos 1269 Rocket 4.0 15:59:43 10° NNW 16:04:59 63° ENE 16:10:14 10° SE
PSLV R/B 4.0 16:02:21 10° S 16:06:34 66° WSW 16:10:52 10° NNW
SL-08 RB Rocket 3.9 16:03:03 10° S 16:07:31 78° WSW 16:12:03 10° NNW
Cosmos 614 Rocket 4.0 16:02:22 10° NNW 16:07:38 84° ENE 16:12:49 10° SSE
Cosmos 1076 Rocket 3.8 16:04:33 10° N 16:08:46 45° ENE 16:12:57 10° SSE
BREEZE-M DEB (TANK) 3.5 16:05:39 10° SW 16:08:51 60° SE 16:19:21 11° ENE
Tiangong 1.1 16:09:53 10° SSW 16:10:37 11° SSW 16:11:21 10° S
NOSS 3-4 (A) 4.0 16:04:36 10° NW 16:11:26 83° SW 16:19:20 10° SE
NOSS 3-4 (C) 4.0 16:04:45 10° NW 16:11:32 83° SW 16:19:20 10° SE
Meteor 2-16 Rocket 4.4 16:06:21 10° S 16:12:29 80° E 16:18:38 10° NNE
SAR-Lupe-2 3.5 16:09:02 10° SSE 16:12:37 88° ENE 16:16:14 10° NNW
NOSS 3-3 (C) 4.0 16:08:30 10° SW 16:14:08 77° NW 16:20:50 10° NE
NOSS 3-3 (A) 4.0 16:08:54 10° SW 16:14:30 75° NW 16:21:12 10° NE
Cosmos 2297 Rocket 2.6 16:09:31 10° SW 16:15:08 64° NW 16:20:47 10° NNE
Cosmos 1953 Rocket 3.6 16:10:51 10° N 16:15:21 88° ENE 16:19:48 10° S
ERS-2 2.6 16:13:07 10° S 16:15:58 48° WSW 16:18:50 10° NNW
Cosmos 2219 3.3 16:11:38 10° S 16:17:06 57° ESE 16:22:38 10° NE
Cosmos 2142 Rocket 4.5 16:11:21 10° N 16:17:27 64° ENE 16:23:32 10° SSE
Cosmos 44 3.5 16:12:53 10° NW 16:18:21 78° NE 16:23:35 10° SE
Cosmos 1125 Rocket 4.3 16:14:45 10° SW 16:19:51 51° WNW 16:25:01 10° NNE
DMSP B5D2-2 4.2 16:16:37 10° NNE 16:21:46 58° E 16:26:54 10° S
USA 234 3.9 16:16:19 11° ENE 16:22:11 40° SE 16:28:16 10° SSW
Cosmos 1602 4.3 16:19:18 10° N 16:22:41 32° ENE 16:26:04 10° SE
Cosmos 1862 3.6 16:19:36 10° NNW 16:23:29 69° W 16:27:23 10° S
USA 308 3.9 16:22:52 10° W 16:24:31 19° SW 16:25:58 10° SSE
Cosmos 1666 2.8 16:24:09 10° N 16:27:33 42° ENE 16:30:56 10° SSE
USA 307 2.5 16:23:57 10° WNW 16:27:50 75° NNE 16:31:19 12° ESE
ISS -3.3 16:28:42 10° WNW 16:32:02 61° SSW 16:35:21 10° ESE
Cosmos 2279 Rocket 4.0 16:26:09 10° N 16:32:26 87° ENE 16:38:40 10° S
Aureole 3 Rocket 3.9 16:28:17 10° NNW 16:33:22 55° W 16:37:06 10° S
Cosmos 2082 3.9 16:29:07 10° S 16:34:29 50° ESE 16:39:27 12° NE
AQUARIUS 4.1 16:31:09 10° SSE 16:35:35 71° ENE 16:40:04 10° N
COSMO-SKYMED 1 3.8 16:34:41 17° ENE 16:36:38 22° E 16:40:01 10° SE
Cosmos 1606 4.1 16:34:39 10° SW 16:38:01 36° WNW 16:41:26 10° N
ATLAS CENTAUR R/B 2.4 16:34:36 10° WNW 16:38:25 79° NNE 16:45:50 10° ESE
Cosmos 2058 Rocket 3.0 16:35:16 10° S 16:39:43 77° E 16:44:09 10° NNE
YAOGAN 11 4.3 16:40:28 10° NNE 16:45:01 82° WNW 16:49:34 10° SSW
Cosmos 405 Rocket 2.9 16:42:56 10° SSW 16:46:43 71° WNW 16:50:34 10° N
Helios 1A 3.4 16:44:13 14° NNE 16:47:24 38° E 16:51:16 10° SSE
Cosmos 1140 Rocket 3.6 16:44:13 10° NNW 16:49:19 53° ENE 16:54:22 10° SE
CBERS 1 LM4 rocket 4.5 16:45:15 10° SE 16:49:54 51° ENE 16:54:30 10° N
USA 306 1.8 16:51:16 10° WNW 16:53:27 51° SSW 16:54:02 35° SSE
SMAP 3.5 16:49:14 10° S 16:53:51 64° WSW 16:58:30 10° NNW
Nadezhda 4 Rocket 4.0 16:48:55 10° SSE 16:54:51 54° E 17:00:48 10° NNE
Cosmos 1500 3.6 16:54:54 10° NNW 16:58:23 58° W 17:01:51 10° S
Meteor 1-20 Rocket 4.2 16:53:20 10° N 16:58:51 61° ENE 17:04:24 10° SSE
CZ-4B R/B 3.9 16:58:57 28° ENE 16:59:15 28° ENE 17:02:52 10° N
Cosmos-2242 3.2 16:57:58 10° SSE 17:02:08 48° E 17:05:03 19° NNE
Cosmos 1437 Rocket 4.4 16:59:11 10° NNW 17:02:35 35° W 17:06:00 10° SSW
NOAA 6 3.9 17:02:23 10° SSE 17:07:29 70° ENE 17:12:35 10° N
Cosmos 2263 Rocket 2.1 17:02:39 10° SSW 17:08:11 76° ESE 17:12:14 19° NE
SL-8 R/B 4.3 17:04:12 10° W 17:08:51 53° SSW 17:12:00 20° SE
USA 276 3.9 17:07:11 10° SSW 17:08:15 15° SSE 17:08:15 15° SSE
Cosmos 2082 Rocket 4.3 17:08:33 10° N 17:09:33 10° NNE 17:10:23 10° NNE
Cosmos 1844 Rocket 4.1 17:06:15 10° SE 17:08:55 18° ESE 17:08:55 18° ESE
RESURS DK-1 4.1 17:07:15 10° N 17:09:16 18° NNE 17:09:16 18° NNE
Cosmos 2227 Rocket 3.1 17:05:38 10° SW 17:11:03 45° NW 17:16:17 11° NNE
CZ-4 R/B 4.2 17:13:58 10° SSE 17:18:02 75° ENE 17:22:09 10° N
YAOGAN 1 3.1 17:19:24 36° NE 17:19:24 36° NE 17:22:48 10° N
Cosmos 1603 3.6 17:14:09 10° NNW 17:19:53 70° ENE 17:25:31 10° SE
Cosmos 1812 2.4 17:17:48 10° S 17:21:27 69° E 17:22:20 48° NNE
Cosmos 2251 Rocket 3.4 17:16:06 10° NNW 17:21:28 75° ENE 17:26:49 10° SSE
CZ-4B R/B 3.7 17:18:08 10° S 17:23:13 71° WSW 17:28:12 10° NNW
SKYMED 2 3.5 17:23:18 34° NE 17:25:00 61° E 17:29:18 10° S
Cosmos 407 Rocket 3.3 17:20:57 10° NNW 17:26:09 76° ENE 17:31:16 10° SSE
ATLAS 2AS CENTAUR R/B 2.9 17:20:48 10° NW 17:27:39 52° NE 17:30:16 34° E
USA 305 2.8 17:23:51 10° WNW 17:27:41 69° SSW 17:28:38 47° SE
Lacrosse 4 Rocket 1.5 17:27:28 10° NW 17:31:51 78° WSW 17:34:33 22° SSE
Cosmos 724 4.5 17:25:46 10° SW 17:31:58 76° NW 17:35:30 27° NE
SL-16 R/B 4.5 17:28:02 10° NW 17:32:38 26° WSW 17:37:12 10° SSW
Cosmos 1954 Rocket 4.2 17:34:00 10° NNW 17:38:57 46° NE 17:38:57 46° NE
Cosmos 1782 4.0 17:35:38 10° S 17:37:38 28° SSE 17:37:38 28° SSE
Cosmos 1818 4.0 17:35:26 10° S 17:40:24 41° ESE 17:40:24 41° ESE
Meteor 2-2 Rocket 4.1 17:36:44 10° S 17:42:28 77° E 17:47:28 15° NNE
Meteor 2-17 Rocket 4.3 17:39:40 10° S 17:45:45 67° E 17:51:16 13° NNE
Cosmos 1943 3.8 17:41:34 10° NW 17:47:06 58° WSW 17:52:37 10° S
Cosmos 1812 Rocket 3.7 17:46:21 10° SSW 17:50:40 72° WNW 17:52:19 37° N
CZ-4B DEB 4.1 17:49:03 20° SSE 17:52:59 71° ENE 17:58:32 10° NNW
Radarsat Rocket 4.5 17:47:33 10° S 17:53:16 58° WSW 17:59:15 10° NNW
SL-08 R/B 3.1 17:54:02 77° ENE 17:54:18 81° ESE 17:58:55 10° SSW
Cosmos 1190 Rocket 3.9 17:49:45 10° NNW 17:55:06 78° ENE 17:56:11 57° SE
ADEOS 3.8 17:52:40 10° S 17:57:52 68° WSW 18:03:06 10° NNW
Cosmos 2297 Rocket 4.3 17:56:26 10° WNW 18:00:21 19° NNW 18:03:49 11° N
ADEOS Rocket 4.2 18:05:29 24° NNE 18:05:29 24° NNE 18:07:58 10° N
USA 307 4.0 17:59:39 10° WNW 18:03:10 33° SW 18:03:12 33° SW
USA 234 3.2 18:03:40 50° NE 18:05:37 84° NNW 18:12:10 10° WSW
ISS -1.1 18:06:05 10° W 18:08:18 17° SW 18:08:24 17° SW
Cosmos 1553 Rocket 3.8 18:02:28 10° N 18:08:50 71° ENE 18:10:27 51° SE
PAYLOAD B 4.1 18:09:59 70° NE 18:09:59 70° NE 18:15:09 10° NNW
COSMO-SKYMED 1 3.4 18:11:54 38° NNW 18:13:03 48° WNW 18:17:13 10° SW
Cosmos 2344 3.3 18:06:52 10° SW 18:14:20 79° SE 18:16:08 55° ENE
Cosmos 2026 Rocket 4.2 18:17:00 10° SSW 18:23:14 70° WNW 18:29:35 10° N
Cosmos 1833 Rocket 4.3 18:20:01 10° NNW 18:22:32 23° N 18:22:32 23° N
Lacrosse 5 3.6 18:22:54 10° SSW 18:24:56 23° SSW 18:24:56 23° SSW
CZ-4B R/B 4.3 18:42:41 36° NNW 18:42:41 36° NNW 18:45:53 10° NNW
Cosmos 2263 Rocket 3.8 18:48:02 10° W 18:52:42 27° NW 18:53:56 25° NNW
Cosmos 1844 Rocket 4.0 18:47:46 10° SSW 18:50:38 32° SW 18:50:38 32° SW
Cosmos 2082 Rocket 4.5 18:51:19 10° NNW 18:52:13 14° N 18:52:13 14° N
Cosmos 2227 Rocket 4.5 18:53:27 10° WNW 18:56:38 15° NNW 18:58:05 14° N
ATLAS 2AS CENTAUR R/B 3.3 19:12:00 10° NW 19:17:44 49° W 19:17:44 49° W
